Temp_Advection
nan nan nan nan nan nan nan nan nan nan nan nan nan nan nan nan nan nan nan nan nan nan nan nan nan nan nan nan nan nan nan nan nan nan nan nan nan nan nan nan nan nan nan nan nan
nan 0 0 0 -0 -0 -0 -0 0 0 -0 -0 -0 0 0 0 0 -1 -1 0 -0 -0 -0 0 0 0 0 0 0 -0 -0 -0 -0 -0 0 0 0 -0 -0 0 -0 -0 -0 -0 nan
nan 0 -0 -0 -0 -0 -0 -0 -0 0 -0 0 0 0 0 0 -0 -2 -0 -0 0 0 0 0 0 0 0 0 0 -0 -0 -0 -0 -0 -0 0 0 0 -0 -0 -1 -1 -0 -0 nan
nan -0 -0 -0 0 -0 -0 -0 -0 0 0 0 0 0 0 0 -0 -0 0 -0 0 0 0 -0 0 0 0 0 0 -0 -0 -0 0 -0 0 0 0 0 -0 -0 -0 -0 0 -0 nan
nan -0 -0 -0 -0 -0 -0 -0 -0 0 0 0 0 0 0 0 -0 0 0 0 0 -0 -0 -0 -0 -0 -0 -0 0 0 0 0 0 0 0 0 0 0 -0 0 0 0 0 0 nan
nan 0 0 -0 -0 -0 -0 -0 0 0 0 0 0 0 0 -0 -0 0 0 0 0 -0 -0 -0 -0 -0 -0 -0 0 0 0 0 0 0 -0 0 0 0 -0 0 0 1 0 1 nan
nan 0 0 0 0 -0 -0 0 -0 0 0 0 0 0 -0 -1 -0 -0 0 0 0 -0 -0 -0 0 -0 0 0 0 0 -0 -0 0 0 0 0 0 -0 -0 0 1 1 1 0 nan
nan 0 0 0 0 0 0 0 -0 0 0 0 -0 -0 -0 -0 -0 -0 0 -0 -0 -0 -0 -0 -0 -0 -0 0 -0 -0 -0 0 0 0 0 0 -0 -0 0 1 1 0 0 0 nan
nan 0 0 0 0 0 0 0 0 0 -0 0 0 -0 -0 -0 -0 -0 -0 -0 -0 -0 -0 -0 -0 0 0 -0 -0 -0 0 -0 -0 0 0 0 -0 -0 0 1 0 0 0 0 nan
nan 0 0 0 0 0 0 0 0 0 0 0 -0 -0 -0 -0 -0 -0 -0 -0 -0 0 0 0 0 -0 -0 0 -0 0 0 -0 0 0 -0 0 0 -0 -0 0 -0 0 0 0 nan
nan 0 0 0 0 0 0 0 0 0 -0 -0 0 -0 0 -0 -0 -0 -0 -0 0 0 0 -0 -0 0 -0 -0 -0 0 0 -0 0 -0 0 0 0 -1 -0 0 -0 -0 0 0 nan
nan 0 0 0 0 0 0 0 0 -0 0 0 0 0 -0 -0 -0 0 -0 -0 -0 -0 -0 -0 0 -0 0 0 0 0 0 0 0 0 0 -0 0 -0 -0 -0 -1 0 0 0 nan
nan -0 0 0 0 0 0 0 0 0 0 -0 -0 0 0 -0 -0 -0 -0 -0 0 -0 -0 -0 0 -0 -0 0 0 0 0 0 0 -0 -0 -0 -0 -0 -0 0 -0 0 0 0 nan
nan -0 0 0 0 0 0 0 0 0 0 0 -0 0 0 -0 0 -0 -0 -0 -0 0 -0 0 -0 0 -0 -0 0 -0 0 0 0 -0 0 0 -0 -0 -0 0 0 0 1 1 nan
nan -0 0 0 0 0 -0 0 0 0 0 -0 -0 0 -0 0 -0 0 0 -0 -0 0 0 0 0 0 -0 -0 -0 0 -0 -0 -0 -0 0 -0 -0 -1 -0 -0 0 0 0 0 nan
nan -0 0 0 -0 -0 0 0 -0 -1 -0 -0 -0 -0 -0 -0 0 0 0 -0 -0 -0 -0 0 -0 -0 0 0 0 0 -0 -1 -0 0 0 -0 -0 -0 -0 -0 -0 0 -0 -0 nan
nan 0 0 -0 -0 -0 0 -0 -0 1 -0 0 -0 -0 0 -0 0 -0 -0 -0 -0 -0 -0 -0 -0 -0 0 0 -0 -0 -0 -0 0 0 -0 0 0 -1 -0 -0 0 -0 -1 0 nan
nan 0 0 0 0 0 -0 -1 0 -0 -0 -0 -0 -0 0 0 -0 -0 -0 -0 -0 -0 -0 0 -0 -0 -0 0 0 -0 -0 -0 0 0 -0 -0 -0 -0 0 0 -0 -0 0 0 nan
nan -0 -0 0 -0 0 0 -0 -0 -0 -0 -0 -0 0 0 0 -0 -0 -0 -0 -0 0 -0 -0 0 -0 0 -0 0 -0 -0 -0 -0 0 0 -0 -1 -0 0 -0 -0 -0 0 0 nan
nan -0 -0 0 0 0 -0 -0 -0 -0 -0 -0 0 -0 0 0 -0 -0 -0 0 -0 -0 0 -0 -0 -0 -0 0 -0 -0 -0 -0 0 -0 0 0 0 0 -0 0 -0 0 0 0 nan
nan 0 0 -0 -0 -1 -0 -0 -0 -0 -0 0 0 -0 -0 -0 -0 -0 -0 -0 -0 -0 0 0 -0 -0 0 0 0 0 -0 -0 -0 0 0 0 1 0 -0 0 0 0 0 0 nan
nan -0 0 0 -1 -1 0 -0 -0 -0 -0 -0 0 0 0 -0 -0 0 0 0 -0 -0 -0 -0 -0 0 -0 0 -0 -0 0 -0 0 0 0 0 -0 0 -0 -0 0 0 0 0 nan
nan -0 0 -0 -1 0 -0 0 -0 -0 -0 -0 -0 -0 -0 0 0 0 0 0 -0 0 0 0 -0 0 -0 0 -0 0 0 -0 -0 -0 -0 0 0 -0 -0 0 1 0 0 0 nan
nan -0 0 -1 -1 -0 0 -0 0 -0 0 0 -0 0 0 -0 -0 0 0 0 -0 -0 -0 -0 0 0 0 0 -0 -0 -0 0 -0 -0 -0 -0 -0 0 0 0 0 0 0 0 nan
nan -0 -0 -0 -0 0 0 -0 -0 -0 0 -0 -0 -0 0 0 0 -0 -0 -0 0 -0 -0 0 -0 -0 -0 -0 -0 -0 0 0 0 -0 0 0 0 0 0 -0 0 0 0 0 nan
nan -0 -0 -0 0 0 -0 0 -0 0 -0 0 0 0 0 0 0 0 -0 -0 -0 -0 -0 -0 0 0 -0 -0 0 0 0 -0 -0 0 0 -0 -0 0 0 -0 0 0 0 0 nan
nan nan nan nan nan nan nan nan nan nan nan nan nan nan nan nan nan nan nan nan nan nan nan nan nan nan nan nan nan nan nan nan nan nan nan nan nan nan nan nan nan nan nan nan nan
Wind_Speed
19 19 10 2 4 5 5 6 8 10 12 16 15 14 13 13 14 17 20 10 12 10 5 11 11 12 12 10 7 6 4 4 7 6 3 10 4 7 5 11 6 6 7 4 22
19 19 15 7 6 6 5 4 8 9 10 13 15 15 13 12 12 19 18 9 12 9 6 9 10 12 7 6 6 5 4 8 4 4 3 7 7 14 6 8 2 6 8 11 22
19 19 17 13 10 9 6 4 3 8 10 12 13 13 11 9 7 19 19 12 10 10 8 7 9 10 5 6 5 6 5 4 3 3 4 6 7 6 11 3 9 12 14 17 22
19 19 18 14 11 12 9 5 2 2 6 9 11 12 10 11 5 2 12 16 13 13 10 9 7 7 4 5 6 3 3 2 2 2 4 6 8 4 9 2 7 8 12 18 21
14 15 15 17 17 20 20 4 2 4 5 8 11 12 14 8 6 2 7 17 18 14 12 11 9 7 4 5 7 2 3 3 2 2 3 5 3 2 6 6 7 14 17 17 17
10 10 11 12 14 21 25 3 5 4 6 10 12 14 13 5 4 1 3 14 15 14 13 14 8 5 2 5 7 8 3 3 2 2 2 0 1 2 7 10 11 17 18 17 15
8 9 8 8 7 13 23 16 4 8 7 11 13 16 12 10 4 4 2 10 11 12 14 16 5 2 1 3 6 12 4 3 1 1 2 1 6 6 7 15 15 18 16 16 14
7 7 8 8 6 8 9 14 15 10 3 9 6 13 6 9 6 5 5 8 11 11 12 14 4 4 2 7 5 5 5 3 1 3 1 4 7 4 11 21 19 17 15 15 14
5 5 5 5 5 5 5 4 7 7 8 3 3 5 4 10 6 5 6 7 10 12 12 10 3 2 2 5 4 6 4 3 2 5 2 3 5 5 10 19 16 15 13 14 14
3 3 6 6 6 5 5 4 5 6 4 4 4 1 2 6 4 8 8 9 7 13 10 5 3 3 3 4 5 4 4 2 3 2 2 2 9 5 7 13 14 12 13 13 13
3 3 4 8 9 8 7 6 3 0 5 1 3 1 4 6 6 6 7 13 9 6 4 2 5 3 4 3 5 5 3 3 2 1 2 4 6 10 7 11 16 14 14 16 15
4 2 3 4 8 9 7 4 7 3 6 8 5 2 6 6 6 6 11 4 4 3 4 5 4 1 3 3 4 3 3 2 1 0 2 4 10 10 7 11 21 21 16 16 19
4 3 2 1 2 3 2 4 2 6 3 6 6 0 4 7 4 6 9 2 4 3 2 6 1 1 3 4 4 2 3 3 2 1 2 5 8 4 0 3 5 12 18 18 22
4 3 6 4 3 3 2 4 5 5 3 6 2 2 2 7 4 5 4 3 4 6 4 5 4 2 4 4 1 2 0 0 5 3 3 3 4 5 1 2 1 4 14 20 22
9 4 5 7 3 4 4 4 3 2 4 5 4 2 4 2 9 2 4 3 4 3 3 1 3 4 5 1 1 3 3 3 3 4 3 2 3 7 2 4 5 6 9 18 20
9 13 3 5 7 5 3 0 2 5 2 6 4 2 2 4 2 3 2 6 6 6 6 2 2 3 2 2 2 4 5 7 5 3 2 1 4 6 3 2 1 4 11 17 17
4 12 3 2 1 2 1 2 5 6 3 5 3 4 3 4 4 3 3 5 3 5 3 5 3 3 3 4 3 5 6 3 4 4 5 1 3 9 3 1 1 8 15 16 15
2 10 7 2 2 4 5 4 8 2 2 3 3 2 3 0 2 3 3 2 4 4 4 5 4 3 5 2 5 3 4 5 6 3 4 2 5 6 3 0 3 2 12 13 14
5 12 12 9 2 3 3 5 4 1 3 6 5 3 4 2 3 4 2 3 2 1 3 5 2 2 3 2 2 3 1 3 6 2 2 2 7 5 1 2 2 2 10 12 12
1 2 10 7 8 2 4 4 4 3 1 1 3 2 2 1 1 2 3 0 1 1 1 5 5 1 2 1 4 2 4 4 3 2 4 5 5 5 2 4 2 4 11 12 9
3 1 12 7 3 5 3 2 2 3 2 2 1 1 3 2 1 1 2 2 4 4 1 2 3 2 2 4 6 2 1 4 3 4 4 2 6 6 4 4 5 5 6 5 4
2 3 13 4 5 4 2 3 6 3 4 2 0 2 2 2 3 2 1 1 3 2 1 1 4 3 1 0 0 1 3 4 4 5 1 2 6 2 2 2 10 11 11 8 7
2 3 8 6 3 2 2 1 2 5 3 4 3 2 2 3 2 2 3 2 2 1 3 2 1 3 5 4 2 3 4 3 4 3 5 5 5 2 5 8 11 15 12 11 9
3 3 5 7 6 4 3 0 1 1 1 2 2 1 2 2 4 3 2 0 2 2 3 1 2 5 6 4 4 4 5 6 5 3 5 7 3 4 5 6 9 11 12 12 10
5 1 2 2 4 3 2 1 1 1 1 0 1 2 1 0 1 2 1 1 2 2 2 3 2 2 3 3 2 3 4 7 8 4 7 3 8 5 9 8 12 12 12 11 9
3 1 0 3 0 1 1 2 1 1 2 1 1 1 1 2 3 4 4 3 3 1 2 2 1 2 2 2 5 6 8 10 11 5 9 6 17 4 7 14 14 15 12 10 8
3 2 1 1 1 2 2 2 3 3 2 2 1 2 0 0 1 2 1 1 1 4 3 2 4 2 3 3 5 8 8 12 6 5 8 9 7 7 6 12 18 15 12 10 8
Wind_Direction
19 19 7 332 334 322 303 236 222 228 228 230 235 228 223 227 224 224 224 219 224 223 216 196 201 183 180 176 170 151 81 185 207 159 228 165 134 162 153 147 164 170 161 160 179
27 32 36 24 4 351 329 269 236 227 225 224 226 225 214 220 228 237 217 209 213 214 207 195 187 180 173 185 179 133 145 210 203 193 217 181 160 157 149 145 155 160 172 169 181
33 36 35 31 21 10 358 336 264 228 227 226 216 209 204 202 236 255 217 204 206 198 198 191 173 171 169 177 183 168 184 210 211 225 190 167 142 152 143 209 199 193 169 169 182
46 45 40 39 27 23 7 335 268 236 219 209 201 190 189 178 193 296 195 210 197 191 189 186 173 169 145 168 185 172 221 183 177 241 182 165 144 131 175 209 194 190 181 175 188
32 35 32 42 46 25 1 316 336 203 195 187 188 185 168 192 249 13 195 198 191 189 191 181 173 163 177 179 150 216 187 122 122 86 145 150 105 192 219 198 185 180 182 188 196
6 16 9 19 31 24 20 84 117 121 195 183 187 181 173 202 226 168 144 181 190 187 187 180 184 199 211 191 166 179 144 106 91 88 44 108 204 191 219 189 173 179 189 196 206
342 349 352 1 0 10 35 44 129 71 128 151 168 176 184 204 225 233 229 199 195 193 184 181 150 192 178 149 148 133 91 36 71 126 90 117 285 235 206 187 180 186 197 205 212
324 342 350 347 335 344 24 37 56 51 69 137 152 184 219 204 222 266 211 178 189 182 173 185 222 267 231 137 78 83 59 123 165 151 91 129 263 267 206 190 195 201 209 216 216
298 311 326 336 333 340 359 12 341 36 75 44 85 182 245 192 235 229 193 179 165 155 155 174 197 240 138 103 57 17 161 199 305 195 120 152 265 336 206 200 205 210 213 214 210
333 296 279 295 305 327 347 3 23 22 335 94 262 287 170 189 156 160 155 153 145 149 138 154 190 84 42 82 181 159 127 208 230 194 143 203 262 297 223 216 224 225 211 206 205
330 342 273 272 287 308 336 350 23 59 203 238 285 249 134 144 140 134 159 157 146 150 118 113 79 153 168 114 138 118 119 161 254 341 167 243 268 270 247 233 241 239 223 216 209
282 318 340 284 281 295 312 0 334 125 8 40 85 91 121 138 118 82 149 142 130 105 104 43 106 220 95 116 99 95 127 216 340 106 143 356 282 260 222 235 241 239 226 213 200
281 253 261 317 306 292 307 291 331 321 211 192 230 353 109 138 112 126 171 141 114 84 78 125 157 298 108 64 102 64 165 188 176 92 45 337 297 270 112 221 253 242 231 208 198
353 229 228 235 254 236 272 290 288 314 71 348 300 66 85 137 63 163 178 162 48 141 111 89 323 129 97 87 106 153 216 193 123 101 215 17 270 295 315 263 266 235 202 194 191
44 1 216 226 223 233 276 297 297 193 57 316 334 60 66 125 137 63 145 132 111 102 91 245 32 77 76 84 334 137 71 68 73 94 72 358 65 270 357 261 241 233 191 187 190
15 12 200 236 242 251 273 278 126 46 314 333 328 355 72 44 63 112 116 94 109 77 37 65 42 50 113 80 74 141 76 46 56 71 18 337 125 282 211 227 58 203 198 191 192
337 2 3 245 228 218 205 127 35 82 307 319 342 5 82 18 49 69 39 31 102 89 12 13 353 341 46 81 33 72 65 9 0 4 220 297 37 248 280 289 289 211 199 196 198
66 8 13 46 174 146 154 60 65 242 286 321 320 340 92 21 36 41 75 65 53 87 109 140 326 19 350 50 168 74 133 148 199 195 268 15 241 256 212 35 348 324 201 194 196
109 47 46 37 95 170 220 54 179 220 300 354 319 57 1 30 115 80 51 168 227 101 131 139 21 320 48 10 72 182 103 144 105 16 38 235 285 321 162 340 357 57 181 185 195
102 126 25 8 347 323 73 140 188 207 265 177 29 21 173 200 126 94 187 112 319 148 155 204 95 25 329 85 30 73 155 69 3 182 260 291 279 238 284 230 116 125 171 185 201
358 151 12 3 29 47 84 191 206 199 184 144 116 17 31 27 60 62 185 22 20 320 358 140 96 282 40 202 177 116 118 61 118 143 180 267 262 211 235 231 177 142 144 171 208
30 36 358 13 38 52 88 335 348 354 355 323 132 121 120 49 57 94 180 230 346 306 85 23 120 145 191 302 329 198 197 155 131 217 212 153 273 0 356 29 128 119 123 113 97
30 36 13 15 86 39 295 103 80 17 14 11 350 347 334 144 127 171 198 201 342 111 165 167 26 62 357 0 356 223 200 140 108 72 202 150 261 73 107 104 131 134 127 110 96
353 28 37 48 77 110 137 154 6 63 53 3 322 17 44 38 17 175 171 262 10 62 52 59 134 168 186 195 135 194 197 180 150 139 187 223 233 218 196 167 153 140 123 104 87
19 70 91 332 356 96 68 320 150 165 264 260 82 94 143 248 32 151 139 21 32 19 72 103 191 94 275 259 218 239 200 187 205 195 185 263 206 229 203 186 169 146 134 123 109
7 42 68 132 201 335 352 164 280 292 166 164 183 254 204 205 219 230 164 209 204 72 106 1 176 106 306 27 209 253 224 215 224 217 258 279 277 193 154 164 164 167 160 138 112
14 6 305 329 87 101 230 209 204 160 219 250 194 122 144 245 59 4 320 30 306 158 164 123 135 110 257 352 320 286 222 200 194 197 192 218 239 166 181 177 171 167 168 155 145
Height
1499 1495 1491 1492 1492 1491 1490 1489 1490 1492 1493 1495 1497 1499 1501 1502 1504 1504 1504 1508 1509 1510 1511 1512 1514 1516 1519 1521 1522 1523 1533 1537 1530 1531 1522 1520 1522 1524 1525 1526 1528 1529 1530 1531 1533
1502 1498 1495 1493 1492 1491 1490 1489 1490 1491 1492 1493 1495 1497 1499 1502 1502 1501 1504 1505 1507 1509 1510 1511 1513 1515 1518 1519 1520 1520 1533 1528 1520 1519 1520 1519 1520 1522 1526 1527 1528 1529 1529 1530 1533
1505 1501 1498 1496 1494 1492 1490 1489 1489 1490 1491 1493 1494 1496 1499 1501 1503 1497 1501 1503 1506 1508 1510 1511 1512 1515 1516 1518 1519 1520 1525 1519 1518 1519 1519 1519 1520 1521 1523 1528 1526 1525 1527 1529 1532
1507 1504 1501 1497 1495 1493 1491 1490 1489 1489 1490 1491 1493 1496 1498 1501 1505 1497 1498 1501 1504 1506 1509 1510 1512 1514 1516 1517 1517 1520 1517 1517 1519 1519 1518 1519 1520 1521 1522 1523 1523 1525 1527 1528 1531
1509 1506 1504 1501 1498 1495 1491 1489 1488 1489 1490 1491 1493 1495 1498 1501 1499 1498 1496 1499 1502 1504 1507 1510 1512 1513 1515 1515 1517 1519 1517 1518 1519 1519 1519 1519 1521 1521 1522 1523 1523 1524 1526 1528 1531
1509 1507 1504 1503 1500 1496 1491 1488 1489 1489 1489 1491 1493 1495 1498 1501 1498 1498 1498 1499 1501 1503 1506 1509 1512 1513 1514 1514 1515 1516 1518 1518 1519 1520 1520 1521 1522 1522 1521 1522 1523 1524 1525 1528 1531
1509 1507 1506 1504 1502 1500 1497 1493 1492 1492 1491 1492 1494 1495 1498 1498 1498 1498 1498 1499 1501 1503 1505 1509 1511 1513 1513 1513 1514 1515 1520 1520 1520 1522 1523 1524 1525 1521 1519 1521 1522 1523 1526 1528 1531
1509 1508 1507 1505 1504 1502 1501 1499 1497 1495 1494 1493 1495 1497 1497 1497 1498 1498 1499 1499 1500 1502 1505 1509 1511 1512 1512 1513 1515 1519 1523 1529 1522 1522 1524 1525 1529 1516 1518 1519 1520 1522 1525 1527 1529
1507 1508 1507 1505 1503 1502 1502 1501 1500 1499 1498 1496 1497 1498 1497 1497 1498 1497 1499 1500 1501 1503 1506 1509 1511 1511 1512 1516 1524 1526 1534 1528 1523 1522 1523 1526 1525 1519 1518 1519 1520 1521 1523 1525 1528
1506 1506 1505 1505 1504 1503 1502 1502 1502 1501 1499 1500 1497 1500 1497 1497 1497 1497 1499 1501 1502 1503 1507 1509 1511 1514 1516 1521 1536 1528 1529 1528 1526 1524 1524 1526 1526 1520 1520 1520 1519 1520 1522 1524 1526
1505 1504 1504 1504 1503 1503 1502 1503 1504 1504 1500 1499 1498 1496 1496 1497 1498 1499 1500 1501 1502 1504 1507 1509 1518 1523 1515 1516 1519 1522 1524 1525 1525 1524 1524 1526 1526 1520 1519 1519 1518 1518 1520 1522 1525
1503 1504 1503 1503 1503 1503 1503 1504 1502 1506 1504 1499 1496 1496 1497 1497 1499 1499 1501 1503 1503 1508 1506 1514 1520 1515 1515 1516 1518 1521 1524 1525 1526 1525 1526 1526 1523 1515 1514 1514 1514 1515 1518 1520 1522
1503 1502 1502 1502 1502 1502 1502 1503 1502 1502 1504 1502 1498 1497 1498 1499 1499 1500 1503 1502 1504 1507 1509 1516 1517 1515 1515 1520 1520 1527 1526 1527 1525 1527 1527 1528 1523 1512 1511 1511 1511 1511 1514 1517 1520
1502 1500 1501 1501 1504 1501 1502 1502 1502 1501 1507 1504 1499 1499 1499 1498 1501 1501 1502 1504 1505 1511 1512 1516 1516 1514 1518 1523 1523 1523 1527 1525 1528 1533 1546 1534 1543 1517 1512 1511 1511 1511 1512 1515 1519
1503 1501 1499 1500 1500 1501 1502 1501 1501 1502 1523 1503 1499 1499 1498 1499 1501 1502 1502 1502 1507 1510 1513 1520 1518 1519 1520 1524 1524 1526 1526 1528 1532 1539 1541 1537 1557 1521 1515 1512 1512 1511 1513 1515 1519
1503 1500 1498 1500 1500 1500 1500 1500 1501 1516 1530 1507 1500 1499 1500 1499 1501 1502 1502 1503 1507 1512 1516 1522 1521 1522 1523 1524 1524 1526 1529 1536 1544 1549 1565 1543 1554 1533 1517 1510 1509 1511 1513 1516 1519
1504 1502 1499 1499 1500 1498 1499 1500 1515 1524 1512 1509 1505 1501 1501 1503 1502 1502 1506 1509 1513 1528 1535 1525 1526 1524 1524 1526 1526 1528 1538 1567 1562 1574 1560 1551 1560 1526 1511 1510 1509 1509 1511 1515 1519
1503 1502 1500 1499 1499 1498 1499 1503 1521 1513 1511 1507 1505 1503 1503 1502 1504 1505 1508 1514 1514 1516 1533 1537 1541 1528 1527 1528 1529 1532 1536 1557 1553 1565 1560 1549 1547 1520 1511 1510 1510 1509 1512 1516 1519
1503 1503 1501 1501 1500 1499 1501 1520 1519 1515 1514 1512 1507 1507 1506 1503 1504 1507 1512 1515 1514 1513 1519 1526 1530 1529 1529 1528 1530 1533 1543 1540 1556 1562 1562 1553 1531 1512 1511 1510 1510 1510 1512 1515 1518
1503 1502 1501 1500 1500 1500 1504 1514 1514 1512 1511 1511 1511 1506 1508 1506 1506 1508 1513 1513 1512 1512 1513 1516 1530 1530 1530 1529 1531 1530 1536 1546 1558 1543 1543 1548 1539 1531 1514 1511 1511 1512 1513 1515 1518
1503 1502 1502 1499 1499 1500 1517 1514 1511 1509 1509 1509 1511 1510 1509 1509 1508 1510 1513 1515 1514 1514 1513 1514 1519 1534 1531 1532 1532 1536 1538 1543 1546 1550 1545 1545 1538 1518 1515 1511 1511 1513 1515 1516 1518
1503 1504 1502 1500 1501 1508 1516 1516 1513 1511 1510 1510 1509 1508 1509 1511 1513 1513 1513 1516 1515 1515 1514 1517 1524 1544 1528 1530 1529 1529 1530 1534 1542 1541 1554 1552 1538 1513 1512 1512 1512 1514 1516 1517 1517
1504 1504 1503 1500 1510 1516 1513 1512 1511 1511 1512 1511 1511 1511 1509 1510 1513 1514 1515 1515 1514 1514 1514 1515 1524 1547 1534 1534 1531 1530 1530 1531 1538 1544 1548 1546 1526 1513 1513 1513 1513 1514 1515 1516 1516
1505 1507 1505 1505 1507 1511 1510 1512 1512 1510 1511 1511 1511 1510 1510 1511 1513 1514 1515 1516 1515 1515 1516 1516 1523 1520 1529 1517 1524 1528 1528 1529 1530 1550 1536 1532 1512 1513 1515 1514 1514 1515 1516 1516 1517
1506 1509 1508 1514 1511 1509 1511 1511 1510 1511 1512 1511 1511 1511 1512 1512 1512 1513 1515 1515 1515 1515 1516 1517 1520 1527 1523 1522 1521 1519 1519 1528 1532 1522 1521 1514 1516 1508 1509 1511 1513 1515 1516 1516 1516
1510 1510 1510 1509 1510 1511 1511 1509 1511 1510 1510 1511 1512 1512 1512 1512 1512 1513 1513 1515 1513 1516 1516 1518 1521 1522 1517 1517 1522 1520 1518 1519 1520 1518 1519 1515 1507 1502 1505 1508 1510 1511 1513 1514 1514
1510 1510 1510 1512 1510 1511 1511 1509 1508 1509 1510 1509 1509 1509 1511 1512 1512 1513 1513 1513 1514 1515 1518 1519 1523 1526 1517 1521 1518 1515 1503 1505 1505 1503 1501 1508 1495 1499 1503 1503 1506 1508 1510 1511 1512